Погода в Белфасте

Великобритания     54°35′45″N   5°55′53″W
темп.,
°C
ветер,
м/с
пор.,
м/с
влажн.,
%
обл.,
%
осадки,
мм/ч
давл.,
гПа
погр.,
м
16 января, вс
вс1600:00+5юз3884100 0.0 1020238
03:00+5зюз3989100 0.0 1020273
06:00+7ссз51091100 0.2 1022852
09:00+5сз4118326 0.0 1026401
12:00+7сз487346 0.0 1029896
15:00+6сз48808 0.0 1030672
18:00+3з37924 0.0 1033125
21:00+2з23935 0.0 103546
17 января, пн
пн1700:00+2зюз33945 0.0 103746
03:00+1зюз22940 0.0 103738
06:000з11945 0.0 103815
09:00+1зюз11910 0.0 103810
12:00+5зюз12800 0.0 1038155
15:00+5юз11865 0.0 103711
18:00+2ююв11895 0.0 103610
21:00+1ююз118513 0.0 103610
18 января, вт
вт1800:00+1ю118817 0.0 103510
03:00+1ююз128368 0.0 103411
06:00+1ююз228198 0.0 103313
09:00+2ююз2379100 0.0 103351
12:00+6ююз31286100 0.0 1032601
15:00+7ююз61186100 0.0 1030787
18:00+8ююз61281100 0.0 1028852
21:00+8ююз61488100 0.0 1027699
19 января, ср
ср1900:00+8ююз61392100 0.1 1025766
03:00+8юз61493100 0.0 1022825
06:00+8зюз71390100 0.1 10191032
09:00+6сз9158593 1.1 10221038
12:00+6сз7147790 1.1 10251493
15:00+6сз7147617 0.1 10261275
18:00+5ссз613746 0.2 1029947
21:00+4ссз4117980 0.0 1031437
20 января, чт
чт2000:00+4ссз4117378 0.0 1033700
03:00+2ссз410726 0.0 1035377
06:00+1ссз25786 0.0 103798
09:000зсз22805 0.0 103923
12:00+4ссз38685 0.0 1039842
15:00+5ссз25745 0.0 1039339
18:00+1зсз228653 0.0 104012
21:00+3з368299 0.0 1040161